Location: USNO
(38.9242°N, 77.0663°W)
Time: 20:11:04
(UTC-04:00)

Envisat - Pass Details

Date: 15 October 2017
Orbit: 764 x 766 km, 98.2° (Epoch: 16 October)

Event Time Altitude Azimuth Distance (km) Brightness Sun altitude
Exits shadow 21:23:15 31° 323° (NW) 1,330 4.5 -34.3°
Drops below altitude 10° 21:25:58 10° 338° (NNW) 2,308 5.9 -34.8°
Sets 21:28:20 0° 343° (NNW) 3,238 6.7 -35.2°
